RH
86 76 74 72 71 71 83 62 87 72 81 76 69 62 45 23 20 21 22 20 18 18 21 27 29 27 23 21 19 17 16 16 16 17 16 20 21 40 42 46 46 58 90 79 70 71 69 65 71
54 62 64 85 77 66 44 50 70 56 46 47 44 30 22 17 22 18 23 21 20 18 23 22 24 23 23 21 19 18 18 18 17 15 16 17 18 23 40 47 56 60 94 98 87 73 76 76 72
24 23 29 49 47 41 32 23 30 34 23 22 23 24 19 21 22 20 27 18 20 22 22 24 25 23 20 19 18 17 18 17 16 15 14 16 16 20 25 36 65 68 66 96 100 88 75 75 76
24 20 21 22 26 28 21 21 26 22 25 24 22 25 19 23 26 20 21 20 20 22 23 23 24 26 25 22 19 18 17 17 17 15 14 13 18 24 26 26 30 62 75 66 93 100 92 78 75
31 21 21 24 24 24 26 20 42 27 24 26 26 23 29 34 24 24 23 18 18 18 22 18 22 22 24 25 24 20 17 16 15 17 15 13 13 22 33 45 41 40 49 78 73 94 100 91 80
30 31 34 34 34 33 33 34 36 29 28 25 24 30 21 22 22 21 23 16 14 14 15 13 16 18 21 24 23 23 17 16 17 18 30 54 31 26 30 42 89 92 78 65 72 74 98 100 96
38 42 41 41 41 39 34 34 32 29 28 26 23 24 23 17 20 17 15 14 14 14 14 12 12 12 14 17 21 23 21 19 18 17 16 29 63 66 100 61 59 91 90 100 99 89 74 97 100
34 42 48 47 39 33 30 29 27 26 25 21 20 18 18 16 16 15 13 13 15 14 14 14 14 14 14 14 14 19 21 20 18 18 17 16 19 19 39 69 76 61 75 82 77 96 100 80 92
30 29 29 28 29 30 29 27 24 22 23 23 19 20 19 18 17 18 15 14 14 14 13 13 13 13 12 11 9 13 18 19 20 18 17 18 16 16 15 18 29 61 51 46 69 83 94 100 84
30 30 32 36 36 32 30 30 28 27 25 20 18 17 15 14 16 18 20 18 13 14 13 12 11 11 10 10 9 10 14 18 19 20 20 18 17 17 17 14 13 20 26 38 48 46 63 82 94
32 39 39 33 30 28 27 26 22 20 18 14 14 14 11 10 9 12 14 15 13 10 12 12 14 13 13 11 10 12 14 15 18 19 19 19 20 20 19 18 27 18 19 17 18 28 34 39 68
43 40 33 29 27 22 21 17 16 15 14 11 10 10 11 11 12 14 10 7 11 12 10 11 11 11 13 14 14 12 15 16 15 18 19 19 18 19 21 21 19 20 24 28 30 34 29 28 33
41 32 27 24 25 34 34 36 31 26 18 14 12 9 9 9 10 9 9 10 8 7 8 10 12 11 13 14 15 15 16 18 20 18 16 17 19 21 20 20 23 21 18 21 37 41 39 33 28
27 25 31 41 53 57 48 43 33 25 21 18 16 13 10 6 6 7 7 8 7 7 7 7 9 10 12 13 15 16 16 17 17 19 17 17 18 21 21 19 20 23 23 21 20 28 46 59 63
30 50 46 52 48 52 54 46 39 33 26 18 16 12 8 6 5 4 4 6 6 6 6 6 6 7 9 13 14 16 18 16 16 17 18 17 16 17 19 19 20 22 23 25 22 19 18 31 58
44 39 39 49 61 52 37 34 37 38 35 33 24 15 8 5 4 4 3 3 5 5 6 7 6 6 8 9 13 16 17 19 18 18 18 16 16 17 17 17 17 18 19 19 21 22 21 18 21
41 40 47 47 60 46 47 40 32 41 41 42 43 27 13 6 3 3 3 3 3 4 5 7 7 7 8 8 11 14 18 19 20 20 20 21 21 18 18 18 17 18 17 17 17 16 17 22 18
58 60 49 57 57 49 51 52 52 38 42 52 52 40 18 9 4 5 4 3 3 3 6 7 8 8 8 9 11 13 16 22 22 21 21 22 23 25 24 21 19 18 17 17 17 15 14 15 17
84 66 55 48 57 56 67 54 69 76 77 50 50 54 36 15 7 7 6 4 3 4 5 8 9 10 9 11 12 14 18 18 22 22 20 21 22 22 26 26 23 20 19 18 17 15 14 12 14
68 62 63 59 67 56 54 54 57 78 65 68 50 46 56 39 18 8 9 6 4 4 4 7 10 11 12 13 16 16 17 18 17 21 23 22 24 22 23 25 26 27 25 24 20 17 16 18 13
60 51 49 49 50 47 41 49 47 48 54 55 43 49 48 62 41 19 11 10 6 5 4 5 7 9 10 10 10 9 10 15 17 19 23 24 23 23 24 25 26 28 27 28 27 23 20 16 16
52 49 44 49 46 52 57 56 62 65 63 57 51 46 50 48 61 42 17 11 10 8 6 6 7 8 8 9 8 7 9 15 18 19 21 23 25 25 26 28 26 29 28 30 28 23 21 19 18
50 53 56 58 58 50 57 68 86 81 95 77 65 57 49 48 50 57 44 23 14 10 10 10 10 9 9 8 8 8 11 15 16 19 20 19 26 32 30 27 27 27 27 27 24 21 19 15 14
42 38 39 40 43 44 44 47 49 57 58 86 75 68 64 62 49 49 53 45 35 22 11 10 13 12 11 11 11 11 11 11 13 18 22 22 22 24 27 28 27 27 25 24 22 17 17 15 14
42 41 37 37 40 43 43 46 46 45 46 49 55 65 70 68 67 59 52 58 38 43 33 21 14 10 11 13 14 15 15 15 14 13 14 18 22 26 28 30 30 32 27 23 21 21 19 17 13
33 36 37 35 38 44 43 45 46 45 47 44 45 47 49 58 64 63 57 56 61 49 36 38 34 23 17 13 12 13 15 16 16 14 13 13 14 16 20 24 26 25 26 24 21 18 17 16 15
33 28 23 24 27 33 39 38 40 44 51 50 43 51 48 47 48 51 76 68 60 64 56 58 42 37 38 31 21 18 16 15 14 13 14 15 15 15 16 19 21 24 27 26 26 24 22 19 16
33 32 25 22 19 21 34 42 21 32 44 53 47 50 49 44 44 45 47 50 57 66 64 58 55 57 46 42 44 43 38 29 24 21 21 20 18 17 17 18 18 18 17 16 15 14 13 13 13
33 28 26 21 20 17 17 47 21 23 32 48 44 45 45 40 38 39 42 43 43 43 66 65 62 65 67 68 50 44 49 40 37 35 27 25 24 25 26 23 20 17 16 17 16 15 13 11 11
36 44 35 25 24 26 13 37 17 17 23 34 43 41 40 38 34 35 39 39 37 36 43 58 69 67 79 82 77 78 60 52 57 49 44 41 32 22 17 16 19 24 21 17 14 12 12 13 11
Wind_Speed
45 45 45 46 45 46 47 48 46 50 50 55 54 53 54 49 44 41 41 43 41 40 39 39 39 39 37 36 35 33 33 32 31 31 31 29 30 28 28 29 28 25 26 25 24 25 23 23 24
47 46 44 44 44 47 52 49 46 52 53 53 51 50 49 47 46 48 46 47 46 44 43 42 42 42 40 38 36 34 32 30 29 29 30 30 30 30 29 28 28 27 28 28 29 28 28 27 27
49 48 48 49 51 53 53 50 50 54 54 53 54 54 53 53 54 53 55 50 49 49 50 48 48 45 43 40 38 36 35 33 30 29 29 30 31 32 31 30 29 29 31 31 31 32 31 31 30
53 53 52 54 55 58 56 58 55 59 58 60 61 62 60 59 61 59 60 57 53 51 54 53 51 49 47 46 43 41 38 36 34 31 31 31 30 32 32 32 31 32 32 34 34 35 34 34 33
54 54 54 56 59 60 60 61 64 64 65 66 68 69 67 67 66 66 67 64 62 58 58 53 52 53 52 50 49 46 43 42 38 35 34 32 32 30 31 32 32 32 33 35 37 37 37 36 37
54 54 55 58 61 63 64 65 70 69 70 72 71 75 74 68 74 71 73 70 68 67 65 61 59 56 55 55 54 52 50 47 45 41 38 35 33 32 29 33 34 34 33 35 37 39 40 39 40
55 56 58 59 61 64 65 66 71 71 72 74 74 72 79 74 74 79 76 74 73 71 69 66 64 63 61 59 56 56 55 53 49 45 41 41 38 37 34 33 35 36 35 33 34 37 41 43 43
50 53 55 55 56 61 61 65 67 70 73 75 76 75 77 78 73 79 78 75 74 71 71 69 66 64 64 65 64 62 59 57 54 50 48 45 45 43 41 39 36 38 38 38 37 35 39 43 46
43 46 49 51 53 55 57 62 66 65 68 75 73 75 78 75 74 75 77 73 71 69 68 67 67 68 66 66 65 66 65 61 59 57 53 51 49 49 48 45 43 41 40 40 40 40 38 41 45
40 43 47 50 52 56 60 64 68 71 75 76 77 81 83 82 82 79 81 80 75 72 70 67 65 65 65 65 65 65 69 67 64 62 59 55 53 51 52 51 49 48 45 44 44 43 42 43 42
42 44 49 52 57 61 63 69 66 66 69 67 69 75 80 83 82 83 82 86 86 81 75 71 68 64 63 61 63 65 66 68 67 65 62 59 59 57 54 53 51 52 51 49 47 47 47 46 46
44 49 53 53 53 50 48 46 48 49 52 52 54 57 65 73 76 73 83 84 86 86 81 78 74 69 66 62 61 62 66 67 69 68 67 64 62 61 59 58 57 55 54 52 52 50 49 50 48
48 49 42 37 33 33 41 46 52 57 60 62 61 58 54 63 72 75 74 81 80 84 84 84 82 77 75 69 64 61 62 64 66 70 69 68 66 66 64 63 61 59 58 57 55 54 53 52 50
35 24 21 23 24 29 29 33 37 47 52 56 59 59 55 56 57 71 68 71 76 77 81 84 84 83 80 75 70 65 63 62 63 64 66 67 66 67 65 65 64 63 63 61 62 59 55 54 51
8 9 9 8 11 20 25 28 34 39 46 51 52 49 46 51 58 54 61 65 72 73 74 78 82 82 84 81 77 72 68 64 63 61 61 61 62 64 66 65 67 67 66 66 64 64 63 61 58
2 3 6 12 16 21 25 31 32 38 44 53 58 61 52 48 48 49 55 60 69 71 68 74 76 77 81 84 81 78 73 69 68 65 62 60 57 58 60 64 67 68 66 66 68 71 69 68 67
2 5 10 13 20 22 27 31 33 40 45 53 63 64 60 56 51 47 42 45 53 65 64 68 71 73 73 77 82 81 79 77 74 70 68 65 61 58 57 60 62 62 64 64 66 66 69 73 73
8 11 10 16 21 24 30 36 39 37 43 53 60 64 62 56 54 45 40 32 38 50 59 61 66 69 70 72 76 81 84 82 79 75 71 69 65 62 61 59 59 61 62 63 62 64 65 67 73
10 13 17 19 24 26 31 34 39 47 53 50 54 65 66 63 54 44 38 30 25 34 50 58 58 63 67 70 73 76 81 84 84 80 77 76 71 67 64 63 62 61 61 62 62 65 66 70 67
12 15 17 22 24 27 29 31 35 41 44 52 54 56 66 67 65 52 43 34 21 20 35 49 54 58 63 69 72 76 80 83 85 84 80 78 74 71 69 67 66 66 66 66 66 67 65 66 70
17 17 20 22 25 29 32 35 38 41 45 46 50 56 61 66 66 62 50 39 29 13 19 32 41 49 53 58 63 68 75 81 82 84 84 83 80 76 74 73 72 72 71 71 71 71 71 69 70
21 24 26 27 28 28 31 38 42 45 48 51 52 54 58 62 63 61 54 42 31 20 9 16 26 32 37 42 48 53 62 69 72 78 82 84 85 82 80 79 78 78 77 76 77 77 76 75 74
23 24 28 31 33 34 31 34 40 44 45 48 51 53 55 58 60 61 57 51 40 25 15 7 8 17 23 30 35 36 47 58 61 64 70 79 83 85 85 84 83 83 83 82 82 82 83 81 80
29 31 31 32 36 38 39 38 37 44 42 45 49 51 54 56 57 57 57 52 47 37 23 10 6 10 17 22 27 32 37 43 49 59 68 72 76 80 82 85 85 86 86 86 87 85 85 86 86
33 35 35 33 34 40 42 44 42 41 48 40 45 49 51 54 55 55 55 54 47 41 36 22 14 9 13 19 25 30 35 40 46 51 60 69 75 76 77 79 81 84 86 88 88 89 89 90 89
37 37 39 39 36 38 42 46 46 42 46 49 42 48 47 50 53 51 52 51 50 46 38 32 26 13 8 11 19 26 34 40 46 50 54 60 69 73 75 77 79 78 80 82 84 85 88 91 92
41 41 41 41 39 39 42 45 47 45 46 51 44 46 48 47 48 51 50 51 48 46 41 38 32 23 22 15 7 13 19 22 27 36 43 49 56 61 65 68 69 70 73 77 80 82 84 85 86
47 47 46 45 44 42 46 49 47 45 44 51 51 49 46 47 45 46 48 49 49 47 44 41 35 33 26 22 18 15 12 11 14 18 24 31 38 46 52 57 61 65 70 73 75 77 78 78 79
56 56 55 53 52 48 45 52 53 50 47 51 51 51 51 47 46 47 49 50 49 49 46 43 39 35 33 29 24 21 19 14 10 11 16 19 23 28 35 40 47 54 59 62 64 65 65 65 66
65 67 66 62 60 60 49 52 56 55 52 51 55 53 53 51 48 48 50 51 51 50 48 45 42 36 32 31 30 29 27 23 21 20 18 17 21 26 29 30 33 37 38 45 52 53 53 55 58
Wind_Direction
255 258 261 265 266 267 268 269 273 274 274 272 273 273 274 273 272 271 269 273 274 276 277 276 275 273 272 274 276 278 279 272 269 264 261 254 254 251 250 250 250 248 246 246 248 246 245 246 249
255 258 261 261 263 264 267 271 271 274 272 274 271 269 269 271 271 269 272 269 273 273 274 275 274 273 271 270 270 271 273 269 268 265 261 255 251 251 248 247 245 244 243 243 245 246 243 247 247
257 260 260 263 266 266 266 269 269 267 271 269 269 270 268 270 269 269 267 266 271 272 269 268 270 270 271 267 266 266 265 263 262 263 262 257 254 250 250 247 244 244 243 242 245 245 246 244 248
257 259 261 262 263 266 268 269 267 271 271 271 270 270 270 270 268 266 267 265 265 267 266 264 264 265 266 267 265 264 260 258 258 259 260 262 257 252 247 245 245 244 246 244 243 245 245 246 246
256 261 264 265 267 268 269 272 270 268 269 268 269 270 267 270 267 267 266 266 266 264 261 261 261 261 261 262 264 263 260 255 253 253 255 257 260 255 249 244 243 242 244 247 244 244 245 245 247
257 260 262 263 265 267 269 270 269 272 272 272 272 273 272 269 272 269 268 270 269 268 264 260 259 258 256 257 258 260 259 259 257 253 251 253 255 258 253 246 244 243 242 245 244 242 243 245 246
259 263 265 267 270 272 273 273 275 274 274 274 274 273 274 273 272 273 271 271 268 266 264 264 262 260 255 253 255 254 256 257 256 255 250 248 249 251 254 252 246 244 243 242 247 248 245 244 246
264 268 271 274 275 276 276 277 276 277 278 277 276 276 275 275 274 272 271 268 267 264 263 261 259 257 255 255 253 250 249 251 252 251 252 249 247 248 250 252 254 249 244 245 248 248 250 249 246
273 274 273 275 276 278 279 281 282 281 281 282 281 279 275 272 270 270 270 266 263 262 260 257 257 256 253 252 252 248 248 246 248 250 250 249 247 246 248 249 251 251 251 250 249 249 249 250 250
272 276 276 278 282 284 284 283 285 284 282 281 280 278 276 273 273 270 269 267 263 260 257 256 255 253 252 252 248 246 244 245 245 246 247 247 247 247 247 248 247 250 251 250 251 249 250 251 251
278 282 284 285 287 288 290 285 285 285 287 286 285 283 281 277 271 267 263 264 265 261 259 256 253 251 250 248 248 244 243 242 245 245 244 246 246 246 246 247 247 247 249 252 253 252 253 250 250
285 286 290 289 291 294 294 298 297 300 300 300 296 282 278 273 269 265 267 260 257 256 255 253 249 249 249 249 248 245 242 242 242 241 242 244 246 246 246 246 245 246 249 251 251 251 252 254 253
288 291 295 295 299 308 314 313 313 313 311 307 303 297 289 276 271 271 265 264 259 254 251 248 247 245 246 245 246 247 245 242 242 243 244 244 244 245 246 246 246 246 245 248 252 254 253 253 253
291 292 302 320 321 317 329 329 323 319 319 317 312 305 301 292 278 267 272 268 263 257 252 248 245 243 243 243 242 241 244 243 242 242 243 243 243 242 245 246 245 246 246 246 247 249 253 255 255
300 337 16 8 8 355 358 357 343 331 324 321 321 318 297 299 293 281 268 265 265 260 254 250 246 240 240 242 241 240 239 243 243 242 243 244 244 243 243 244 245 246 248 246 246 247 248 251 251
145 53 34 26 10 1 353 360 356 357 353 348 341 334 323 315 307 289 276 264 257 258 253 248 247 242 239 237 238 240 240 239 243 244 244 246 248 247 245 244 244 246 248 249 249 249 248 248 248
61 19 10 358 360 3 8 6 7 6 8 7 2 347 338 330 323 310 291 274 259 252 250 244 242 241 239 237 235 236 237 240 239 241 244 246 248 249 250 248 246 247 247 249 251 251 251 249 248
358 351 356 351 357 2 3 3 6 11 11 13 12 2 346 341 334 327 315 294 269 252 243 241 240 239 237 236 233 234 235 236 239 241 242 244 246 249 252 254 252 250 249 249 249 252 253 253 250
332 333 336 344 347 351 355 1 1 3 5 10 14 16 3 351 349 339 333 320 292 257 239 237 237 238 238 236 236 234 234 236 237 239 242 244 244 246 248 251 254 255 253 253 253 251 254 251 252
320 317 325 332 337 342 349 354 357 357 2 5 16 18 17 6 356 357 349 343 323 276 241 234 234 234 236 237 237 237 236 235 236 238 241 245 246 246 248 249 252 254 255 257 258 257 255 257 255
302 314 321 332 339 340 349 352 351 357 359 1 7 11 19 21 10 3 0 356 355 327 255 240 238 234 235 239 241 240 236 234 236 237 240 244 247 248 249 249 250 252 253 256 258 260 261 260 260
319 325 331 333 339 343 342 345 348 353 352 357 3 6 11 20 23 15 6 4 3 4 333 253 235 241 242 243 241 241 236 235 237 239 242 244 247 249 250 251 252 253 254 255 258 259 260 260 261
313 319 321 327 328 333 341 341 340 341 347 351 355 359 6 11 21 24 20 13 9 7 2 340 259 241 238 237 240 238 238 238 240 244 247 245 245 247 250 251 252 253 255 256 258 259 260 261 261
311 315 316 321 327 331 334 338 342 339 346 349 350 354 357 3 10 19 25 26 23 15 3 352 307 264 249 247 247 245 242 241 241 244 245 246 247 247 249 251 253 255 256 258 259 262 263 264 264
304 304 307 312 317 322 323 326 331 335 334 347 345 348 351 353 357 4 12 22 27 30 28 13 349 295 258 251 250 251 253 253 252 251 249 247 247 248 250 252 255 256 258 259 261 263 265 266 267
299 299 299 303 308 315 317 319 321 329 330 332 342 341 346 349 349 353 1 6 14 21 29 29 30 18 319 274 259 257 257 256 257 258 257 255 251 249 250 251 254 258 261 262 263 265 266 266 267
298 299 297 300 303 307 311 310 312 320 322 322 331 333 336 339 341 344 347 351 359 5 15 22 25 27 32 26 325 267 255 255 259 260 260 259 259 259 258 259 259 261 262 264 264 265 266 266 266
295 296 295 296 298 299 306 307 306 307 314 318 320 324 328 330 334 337 339 340 343 348 355 2 12 17 15 18 21 21 9 329 295 279 272 268 265 263 262 262 264 265 265 266 267 267 268 268 269
296 297 297 298 299 299 297 308 303 302 308 310 312 315 318 321 324 327 328 330 334 334 338 346 352 358 3 5 2 5 5 344 327 311 284 277 273 272 272 272 271 268 266 266 267 268 269 270 270
294 295 295 295 296 298 295 307 298 300 302 305 305 307 309 312 316 317 318 320 323 325 325 328 336 340 344 347 349 347 346 341 344 339 326 316 296 284 278 275 274 274 277 274 269 269 269 270 269